Location: Gilevgi
(36.8751°N, 30.0581°E)
Time: 09:33:46
(UTC+00:00)

IRS-P3 - Pass Details

Date: 16 March 2026
Orbit: 810 x 816 km, 99.0° (Epoch: 20 April)

Event Time Altitude Azimuth Distance (km) Brightness Sun altitude
Rises 16:22:53 0° 169° (S) 3,326 7.2 -3.8°
Reaches altitude 10° 16:25:13 10° 171° (S) 2,398 6.5 -4.3°
Maximum altitude 16:30:31 76° 257° (WSW) 843 4.4 -5.4°
Drops below altitude 10° 16:35:51 10° 343° (NNW) 2,412 6.9 -6.4°
Sets 16:38:13 0° 345° (NNW) 3,347 7.6 -6.9°
